THY5656 LIMC-EDDF

Flight info

Callsign THY5656
Flight time N/A
Altitude 32000
Route PEPAG DCT ABESI N851 UTAVO DCT ROLSA DCT LADOL T163 EMPAX EMPAX5B
Aircraft B738/M-SDE2E3FGHIRWXY/LB1

Departure

Time 2026-05-04 16:07
Airport Milan Malpensa International Airport (LIMC)

Arrival

Time N/A
Airport Frankfurt Main Airport (EDDF)
Time Latitude Longitude Altitude Speed Heading
2026-05-04 15:51 45.62693 8.71559 752 ft 0 kts 349°
2026-05-04 15:54 45.62691 8.71560 752 ft 1 kts 349°
2026-05-04 15:55 45.62681 8.71562 747 ft 1 kts 349°
2026-05-04 15:55 45.62672 8.71565 748 ft 1 kts 349°
2026-05-04 15:55 45.62662 8.71567 748 ft 1 kts 349°
2026-05-04 15:55 45.62653 8.71570 749 ft 1 kts 349°
2026-05-04 15:56 45.62643 8.71572 750 ft 1 kts 22°
2026-05-04 15:56 45.62635 8.71564 750 ft 1 kts 61°
2026-05-04 15:56 45.62632 8.71555 748 ft 0 kts 83°
2026-05-04 15:57 45.62637 8.71610 752 ft 11 kts 83°
2026-05-04 15:58 45.62646 8.71766 752 ft 20 kts 90°
2026-05-04 15:58 45.62669 8.71966 751 ft 13 kts 76°
2026-05-04 15:58 45.62677 8.72015 751 ft 1 kts 76°
2026-05-04 15:58 45.62679 8.72026 750 ft 1 kts 76°
2026-05-04 15:59 45.62681 8.72039 751 ft 2 kts 76°
2026-05-04 15:59 45.62684 8.72056 747 ft 2 kts 75°
2026-05-04 15:59 45.62688 8.72077 748 ft 2 kts 75°
2026-05-04 15:59 45.62693 8.72105 749 ft 3 kts 84°
2026-05-04 16:00 45.62677 8.72129 751 ft 4 kts 144°
2026-05-04 16:00 45.62638 8.72147 749 ft 8 kts 169°
2026-05-04 16:00 45.62569 8.72166 747 ft 12 kts 169°
2026-05-04 16:00 45.62469 8.72192 747 ft 17 kts 174°
2026-05-04 16:01 45.62344 8.72222 748 ft 20 kts 169°
2026-05-04 16:01 45.62199 8.72269 751 ft 23 kts 168°
2026-05-04 16:01 45.62039 8.72315 749 ft 24 kts 169°
2026-05-04 16:01 45.61870 8.72361 752 ft 26 kts 169°
2026-05-04 16:02 45.61684 8.72414 752 ft 28 kts 168°
2026-05-04 16:02 45.61495 8.72465 751 ft 27 kts 169°
2026-05-04 16:02 45.61155 8.72561 747 ft 23 kts 167°
2026-05-04 16:03 45.61089 8.72725 745 ft 22 kts 77°
2026-05-04 16:03 45.61113 8.72941 749 ft 22 kts 78°
2026-05-04 16:03 45.61198 8.73106 751 ft 21 kts 38°
2026-05-04 16:03 45.61318 8.73218 752 ft 21 kts 31°
2026-05-04 16:04 45.61452 8.73249 751 ft 20 kts 349°
2026-05-04 16:04 45.61622 8.73334 752 ft 14 kts 86°
2026-05-04 16:04 45.61613 8.73468 750 ft 14 kts 118°
2026-05-04 16:05 45.61584 8.73590 750 ft 14 kts 88°
2026-05-04 16:05 45.61638 8.73706 742 ft 17 kts 16°
2026-05-04 16:05 45.61873 8.73662 744 ft 17 kts 348°
2026-05-04 16:06 45.61991 8.73627 743 ft 18 kts 349°
2026-05-04 16:06 45.64410 8.73011 1353 ft 202 kts 352°
2026-05-04 16:07 45.66346 8.72993 2773 ft 216 kts
2026-05-04 16:07 45.70775 8.76042 4968 ft 260 kts 51°
2026-05-04 16:08 45.71962 8.78074 5691 ft 271 kts 49°
2026-05-04 16:08 45.76179 8.83768 8626 ft 289 kts 41°
2026-05-04 16:09 45.79439 8.87419 10408 ft 308 kts 39°
2026-05-04 16:09 45.83205 8.91403 10940 ft 365 kts 37°
2026-05-04 16:10 45.87503 8.95846 12167 ft 389 kts 36°
2026-05-04 16:11 45.94221 9.02774 14576 ft 405 kts 35°
2026-05-04 16:11 45.96576 9.04993 15357 ft 408 kts 26°
2026-05-04 16:12 46.04958 9.06218 17433 ft 414 kts 350°
2026-05-04 16:12 46.13684 9.04659 19387 ft 428 kts 351°
2026-05-04 16:13 46.19670 9.03764 20630 ft 436 kts 352°
2026-05-04 16:13 46.25735 9.02967 21846 ft 444 kts 353°
2026-05-04 16:14 46.31952 9.02141 22946 ft 453 kts 353°
2026-05-04 16:14 46.38286 9.01283 23983 ft 461 kts 353°
2026-05-04 16:15 46.45417 9.00320 25005 ft 467 kts 353°
2026-05-04 16:16 46.51937 8.99438 25788 ft 473 kts 353°
2026-05-04 16:16 46.61841 8.98104 26977 ft 481 kts 353°
2026-05-04 16:17 46.68535 8.97197 27820 ft 482 kts 353°
2026-05-04 16:18 46.78620 8.95827 29070 ft 487 kts 353°
2026-05-04 16:18 46.81995 8.95367 29473 ft 489 kts 352°
2026-05-04 16:19 46.92056 8.93993 30898 ft 483 kts 353°
2026-05-04 16:19 46.98729 8.93079 31816 ft 479 kts 352°
2026-05-04 16:20 47.08686 8.91706 31999 ft 479 kts 352°
2026-05-04 16:20 47.15328 8.90793 31984 ft 479 kts 352°
2026-05-04 16:22 47.27572 8.89099 31970 ft 480 kts 352°
2026-05-04 16:23 47.47731 8.90224 31960 ft 486 kts
2026-05-04 16:25 47.67866 8.91711 31967 ft 481 kts
2026-05-04 16:26 47.91196 8.93416 31951 ft 480 kts
2026-05-04 16:28 48.07924 8.94649 31952 ft 483 kts
2026-05-04 16:29 48.30680 8.97404 31037 ft 441 kts
2026-05-04 16:30 48.39673 8.98804 29832 ft 429 kts
2026-05-04 16:31 48.45548 8.99701 28974 ft 419 kts